Wind_Speed
22 23 23 21 21 21 22 22 19 18 18 18 20 20 18 18 18 18 17 17 16 15 14 13 12 13 13 13 14 14 14 14 13 12 11 10 11 11 11 11 10 9 8 7 7 6 6 6 6 6 5 5 5 6 6 6 5 5 5 5 5 5 5
24 25 22 21 22 23 23 23 22 21 20 19 19 20 19 18 18 19 19 18 17 16 14 14 13 13 13 14 14 15 15 15 14 13 12 12 12 12 12 12 10 9 8 7 7 7 6 6 6 6 5 4 4 4 4 4 4 3 3 3 3 4 4
25 25 22 22 23 24 25 24 23 23 22 20 19 20 19 19 19 18 18 18 17 16 15 15 14 13 13 14 15 15 15 15 15 15 14 13 12 12 13 12 11 9 8 7 7 7 7 6 6 5 5 4 4 3 3 3 3 3 3 2 2 2 3
29 27 25 26 25 25 26 26 25 24 21 18 17 18 17 17 18 17 17 17 17 17 17 16 15 14 14 14 15 15 15 16 16 16 15 14 13 13 13 13 12 10 8 7 7 7 8 7 7 6 5 4 3 3 3 3 4 4 3 3 3 3 2
32 32 29 28 27 26 26 26 25 22 19 17 17 18 17 17 17 17 17 17 17 18 17 17 16 15 14 14 15 15 15 16 16 16 16 15 15 14 14 14 13 11 9 8 8 7 7 7 7 6 5 4 3 3 3 3 4 4 4 4 4 3 2
27 32 31 26 24 25 27 26 24 21 21 23 21 20 19 19 18 19 20 20 20 19 17 16 16 15 15 15 15 15 15 15 15 16 16 16 16 16 16 15 14 13 11 10 9 8 7 6 6 5 5 4 3 3 3 4 4 4 4 5 4 4 3
19 25 29 25 20 22 26 27 25 24 26 25 21 20 20 19 19 20 20 20 20 20 18 16 16 16 16 15 15 15 15 15 15 15 16 17 17 17 17 17 16 15 13 12 11 10 9 7 6 5 5 4 4 3 4 4 5 5 5 6 5 5 4
17 19 23 23 17 17 22 25 24 25 26 23 20 21 20 20 21 20 20 20 20 19 18 17 18 18 17 16 16 16 16 16 16 16 17 17 18 18 18 18 18 17 16 14 13 12 10 9 8 6 6 5 4 4 4 5 5 6 6 7 6 6 6
19 19 20 22 19 16 19 22 22 21 21 20 20 22 22 22 23 22 21 21 20 20 19 18 19 19 19 19 19 17 17 17 16 17 17 18 19 19 19 19 19 18 18 17 15 13 12 10 9 8 6 5 5 4 4 4 5 6 6 7 7 7 7
20 19 19 21 22 21 21 20 17 15 17 18 17 20 24 23 22 21 21 22 22 22 22 22 21 19 20 22 21 19 18 18 18 18 18 19 20 20 20 20 20 20 19 18 17 15 14 12 11 9 7 6 5 4 3 3 4 5 6 7 7 8 8
22 21 20 20 21 23 24 22 17 13 15 17 15 17 21 21 20 19 20 22 23 24 25 25 23 22 21 21 20 19 19 19 20 20 20 20 20 21 21 21 20 20 20 19 18 17 15 14 12 11 9 7 6 4 3 3 3 4 5 6 7 8 8
23 23 22 21 21 22 23 22 20 17 16 17 17 17 19 20 19 18 19 22 25 26 26 25 24 25 26 25 23 21 20 20 20 21 21 21 21 20 20 20 21 21 21 21 20 19 17 15 14 12 11 9 7 5 4 3 3 3 4 5 6 7 8
24 24 24 23 22 22 23 24 24 23 21 20 20 19 19 20 21 19 18 21 24 26 27 26 25 25 25 26 25 23 23 22 21 21 23 23 22 20 19 18 19 20 21 22 21 20 19 17 15 14 12 10 8 7 6 5 4 3 3 4 5 6 7
26 25 25 24 24 23 25 26 27 27 26 24 23 22 21 20 21 21 20 21 24 26 27 26 26 26 25 25 25 23 23 25 24 22 23 24 24 23 21 20 19 19 21 22 22 22 21 19 17 15 13 12 10 9 7 6 6 5 4 4 4 5 6
27 27 26 26 26 25 25 27 29 29 29 27 25 25 25 23 23 24 24 23 25 26 26 25 25 26 27 27 26 23 23 27 28 23 23 25 26 26 25 24 23 21 21 22 23 23 22 21 19 17 15 13 12 11 10 9 8 7 6 5 5 5 5
28 28 27 27 27 27 27 27 28 29 29 29 27 26 26 26 26 26 26 26 26 25 25 24 24 25 26 27 28 27 27 30 30 25 25 26 28 29 28 27 26 25 24 23 24 24 24 23 21 19 17 16 14 13 12 11 10 10 9 8 7 7 7
30 30 30 29 29 30 29 29 29 29 29 29 29 28 28 27 27 27 27 28 27 24 22 24 25 25 26 27 28 30 31 31 29 27 27 28 29 30 30 30 30 29 28 26 24 24 24 23 22 20 19 18 16 15 14 13 13 13 12 11 10 10 9
31 33 34 33 32 32 32 31 31 31 31 31 31 31 31 30 30 29 28 29 28 25 22 23 26 27 27 28 28 29 30 29 28 28 27 28 29 30 31 32 32 30 27 23 21 21 22 22 22 21 20 19 18 17 16 16 16 15 15 14 13 13 12
28 31 34 35 36 35 35 35 34 34 34 34 33 33 32 33 33 32 31 31 30 28 25 23 24 26 27 28 27 28 29 29 28 28 28 28 29 29 29 30 31 29 25 20 18 20 20 21 22 22 21 21 20 19 18 18 18 17 17 17 17 16 14
27 28 30 32 35 37 37 37 37 37 37 36 36 35 35 35 36 36 35 34 32 30 28 26 24 24 25 26 27 27 27 29 30 31 30 30 30 30 29 28 28 28 25 21 21 23 24 24 25 25 25 24 22 21 21 20 20 19 19 19 20 19 18
31 30 30 31 32 34 36 38 38 39 39 39 38 38 38 38 38 38 39 38 35 33 31 30 29 27 25 26 27 26 26 27 30 32 33 32 31 31 30 29 29 29 27 25 26 28 29 30 29 28 28 27 26 24 22 21 22 22 21 21 22 22 21
32 32 33 34 34 34 34 35 37 39 39 40 40 39 40 40 40 40 40 40 39 37 35 33 33 32 29 27 26 26 26 27 28 29 31 33 33 31 29 29 31 31 30 29 30 30 30 31 32 30 28 28 28 26 25 24 23 23 23 23 24 24 23
33 33 34 35 36 37 36 35 36 37 38 40 40 40 41 41 41 41 41 41 41 40 39 36 35 35 34 31 29 28 28 28 28 26 26 29 31 32 30 30 32 33 32 32 33 32 31 32 33 32 29 27 28 27 27 27 28 26 24 24 25 25 25
35 36 36 36 37 38 38 38 38 38 38 39 40 40 41 41 42 42 42 42 42 42 42 40 38 37 37 35 33 31 30 29 29 28 26 26 28 31 33 34 34 34 34 34 34 34 34 33 34 33 31 29 28 28 30 31 30 26 24 24 25 25 25
37 37 37 38 39 39 38 39 40 40 40 41 40 40 41 41 42 42 43 43 43 43 43 43 41 40 39 38 36 34 32 30 29 29 28 28 29 30 33 35 36 36 35 34 34 36 37 36 35 34 34 33 32 32 32 29 24 22 23 25 26 26 27
39 39 39 40 40 40 40 41 41 41 42 43 42 42 42 42 43 43 43 43 44 44 44 44 43 42 42 41 39 37 35 33 31 30 30 30 31 32 32 33 34 36 36 34 34 36 38 38 37 35 35 35 36 36 32 26 22 23 26 28 29 29 30
39 41 42 43 42 42 42 43 42 43 43 44 44 44 44 43 44 44 44 44 44 45 45 45 45 44 44 43 42 41 39 37 35 33 31 31 31 33 34 34 33 34 35 36 36 37 38 38 37 36 35 36 37 37 33 28 27 30 31 31 31 31 31
41 43 44 44 43 43 44 45 45 45 45 45 45 46 45 45 45 46 46 46 45 46 46 47 46 46 46 45 45 44 43 42 40 38 35 34 33 33 34 35 35 35 35 35 36 37 37 37 37 37 38 38 38 37 35 33 33 33 32 33 32 33 33
45 46 46 46 44 44 45 46 46 47 47 47 47 47 47 47 48 48 48 48 47 47 47 48 48 48 48 47 47 48 47 46 45 43 41 39 37 35 35 36 38 38 37 36 36 36 37 37 37 39 40 39 38 39 37 36 35 34 34 35 34 34 35
45 47 48 48 48 48 48 48 48 49 49 49 49 49 49 49 50 50 50 50 50 49 49 49 49 49 50 49 49 50 50 49 48 48 46 44 42 39 37 37 38 40 40 38 37 38 38 37 36 38 39 38 38 38 37 35 34 35 35 36 36 35 36
43 44 46 48 49 49 50 50 51 51 51 51 51 51 51 50 50 51 51 52 51 51 51 50 50 50 51 51 51 51 52 51 51 51 50 49 47 45 43 41 40 40 40 40 39 39 40 39 36 35 35 35 35 34 32 31 32 32 34 35 36 36 36
42 43 44 45 46 47 49 50 51 52 52 53 53 53 53 53 53 53 53 53 53 53 52 52 51 51 51 51 51 52 53 53 53 53 53 53 52 50 49 47 44 43 42 42 42 41 40 39 37 35 34 34 35 33 31 31 30 29 31 33 34 34 35
44 43 43 43 44 45 46 48 49 50 51 52 53 53 54 55 55 55 55 55 55 55 54 53 53 52 52 52 52 52 53 54 54 55 55 55 54 54 53 52 50 48 47 46 46 45 43 41 40 39 37 38 38 37 34 33 32 31 32 33 34 34 34
45 45 44 44 45 45 46 48 48 48 49 50 51 52 53 54 55 55 56 56 57 56 56 56 55 54 54 54 53 53 53 54 55 56 56 56 56 56 56 55 54 53 52 52 51 50 48 47 46 44 42 41 41 40 38 37 36 35 35 36 35 35 35
44 45 45 45 46 47 48 49 49 49 49 49 50 51 52 53 54 54 55 55 56 57 57 57 57 57 56 56 55 55 55 54 55 56 56 56 56 56 57 57 56 56 56 56 56 55 54 53 52 51 48 47 46 44 42 41 40 38 38 38 38 36 35
41 42 43 43 44 46 47 48 49 50 51 51 51 51 52 53 54 54 55 55 56 56 57 57 57 58 58 58 58 57 57 56 56 56 57 57 57 57 57 57 58 57 57 58 59 60 59 58 57 57 55 54 52 50 48 47 45 43 42 42 41 40 40
40 40 41 41 42 42 43 45 47 48 49 51 51 51 52 53 54 55 56 56 56 56 57 57 57 58 58 58 59 59 59 59 58 57 58 58 58 58 58 58 58 58 58 58 59 61 62 62 62 61 60 59 58 56 55 53 51 49 48 46 46 46 45
42 42 43 42 41 40 40 42 43 44 45 47 48 50 51 52 54 55 56 57 57 58 58 58 58 58 59 60 60 60 60 60 60 59 59 59 59 58 59 59 59 58 58 58 59 61 62 63 64 64 64 63 62 61 60 59 57 55 54 52 50 50 50
Wind_Direction
199 202 203 205 208 212 217 216 213 216 219 214 207 202 203 205 204 202 199 198 199 202 205 206 202 195 191 189 191 193 192 191 188 185 181 177 174 170 167 166 162 161 160 155 151 147 148 149 143 139 142 145 142 141 143 144 143 137 132 131 126 120 115
200 203 206 207 207 209 213 214 213 214 216 217 212 205 203 206 207 205 203 200 200 203 205 207 205 199 196 193 193 197 196 192 191 190 188 185 180 175 172 173 172 171 169 167 164 159 158 158 153 152 159 165 162 165 170 167 165 162 155 154 145 139 136
205 205 208 211 212 212 212 212 215 216 213 211 212 207 204 207 211 210 208 205 203 205 206 207 205 201 199 198 199 201 200 196 193 193 193 191 187 181 177 178 178 178 178 176 173 165 159 158 155 155 161 168 172 185 200 201 202 202 196 196 191 178 169
208 205 205 209 214 215 214 214 215 215 211 208 211 211 207 210 215 216 216 214 210 209 210 210 207 202 200 201 205 206 205 201 197 197 197 195 193 189 185 183 184 186 186 184 180 171 163 158 156 156 159 165 174 190 213 223 226 227 226 228 232 228 222
207 207 205 206 212 216 217 217 212 207 206 208 211 212 209 209 214 217 218 220 219 217 216 214 210 206 203 203 206 211 213 209 203 200 200 200 199 196 193 192 192 192 191 190 189 184 175 166 160 161 165 171 182 196 220 237 242 243 241 241 244 245 251
206 205 203 203 210 215 216 216 209 203 206 208 208 211 211 208 210 214 216 215 217 220 222 224 220 212 208 206 207 211 217 218 212 206 204 205 205 202 200 200 200 199 199 198 197 195 191 183 174 171 175 182 195 208 223 239 246 250 250 250 250 251 255
209 200 196 196 205 212 213 211 205 207 211 208 206 211 214 213 212 216 219 218 216 216 218 227 232 226 217 211 209 212 217 221 220 215 210 210 210 209 206 205 205 205 206 206 205 203 200 197 193 190 189 193 203 212 223 234 242 247 251 252 251 249 248
218 210 200 197 197 199 202 200 199 209 215 209 208 213 216 217 215 216 222 224 223 219 216 221 228 228 227 220 213 214 218 223 224 220 217 215 215 215 213 212 211 210 211 212 211 209 205 201 201 202 201 201 203 207 217 226 231 238 244 247 247 245 241
218 217 215 215 215 209 198 191 190 201 207 202 203 210 214 217 215 217 221 221 221 221 221 226 226 225 230 226 216 213 218 225 229 227 222 220 218 218 218 217 216 216 217 217 215 213 210 205 203 205 206 206 204 201 206 217 224 230 237 241 241 242 241
221 217 217 222 229 231 223 210 198 194 195 196 199 204 210 214 216 221 222 217 217 218 219 225 227 224 224 221 215 214 216 220 227 231 229 226 223 221 221 221 221 221 222 223 222 219 214 208 204 205 207 208 206 200 198 209 221 227 234 240 240 240 241
226 223 219 218 225 234 236 231 223 209 199 202 208 207 210 215 220 227 230 226 226 226 222 221 221 220 222 222 220 221 221 220 224 229 231 231 228 225 224 224 224 225 227 228 228 225 220 214 209 206 206 206 203 198 195 199 213 228 237 242 245 244 243
227 227 225 222 222 229 236 236 234 233 224 217 221 221 219 222 225 229 233 232 230 230 229 227 224 221 224 228 229 230 230 229 229 231 234 235 233 231 231 231 231 231 231 232 233 232 228 222 216 211 207 205 203 199 196 196 201 216 234 243 247 248 247
225 227 229 229 226 228 232 234 235 239 240 234 230 231 231 230 228 227 231 231 229 229 232 233 230 225 225 229 231 232 235 236 234 234 237 238 236 234 233 236 240 241 240 238 237 237 236 231 225 219 211 206 206 205 201 201 204 210 226 242 249 252 252
225 226 228 231 232 231 230 231 232 234 238 239 236 234 235 235 230 227 228 229 229 229 232 233 231 227 227 231 234 233 236 238 235 233 235 237 238 235 229 227 231 239 246 246 242 240 239 237 233 228 222 213 210 212 213 212 215 217 223 236 249 257 260
226 228 228 229 232 233 232 230 228 228 231 235 238 239 241 243 240 236 233 233 233 233 234 235 234 230 227 229 232 232 236 240 238 232 230 233 236 236 233 227 222 224 234 244 245 243 240 240 238 235 232 225 217 216 220 224 228 230 232 237 246 257 262
224 227 229 230 230 230 231 230 229 228 228 231 236 239 242 245 245 244 242 240 240 239 239 240 240 237 232 229 230 229 233 240 241 234 225 225 229 232 233 232 227 220 221 229 238 241 240 239 238 237 237 235 229 224 223 228 233 236 239 241 243 250 256
220 223 225 228 229 230 231 231 231 233 233 235 237 240 243 245 246 247 247 245 245 244 242 242 240 239 236 234 233 233 234 239 243 240 230 226 229 232 232 233 230 225 221 222 230 238 241 240 239 239 238 236 234 230 228 231 234 236 239 242 244 244 246
221 222 223 226 228 230 231 232 234 236 238 240 242 243 244 246 247 247 247 247 248 247 244 242 239 238 238 238 237 237 237 239 243 242 236 230 232 234 234 236 236 234 230 228 231 238 244 247 245 243 241 240 237 234 231 232 235 236 236 238 240 242 241
224 224 225 227 229 230 232 233 236 239 240 242 243 245 246 246 248 249 250 249 248 247 249 249 245 241 239 238 236 235 235 235 235 236 236 235 234 233 235 240 243 241 239 237 238 239 244 250 250 246 242 240 240 239 236 235 235 237 239 239 236 237 238
232 232 230 230 230 232 234 235 237 239 241 243 245 246 248 249 249 251 253 254 251 249 250 252 250 246 242 239 236 234 234 232 229 231 235 237 236 234 237 242 244 242 238 233 233 235 237 241 246 247 243 238 235 237 240 242 240 237 239 242 241 236 233
238 239 239 238 235 234 235 237 238 239 241 244 246 247 249 251 251 251 253 256 255 254 253 252 252 251 247 243 239 237 238 235 231 232 234 237 239 239 240 242 241 240 236 228 227 232 233 233 236 241 244 242 237 234 235 241 245 244 242 243 245 242 236
242 242 243 243 242 240 238 238 239 240 240 242 244 246 248 250 251 252 253 255 256 256 256 256 254 251 248 245 243 242 242 239 235 234 235 237 239 241 242 241 235 234 235 232 232 236 236 234 235 237 241 244 244 240 236 236 240 245 248 248 247 246 243
244 244 243 243 244 244 243 243 242 242 242 242 242 244 245 247 249 250 252 254 255 256 257 258 257 252 248 246 246 246 245 242 240 239 237 237 239 240 241 238 234 235 239 239 239 240 239 238 238 237 237 239 241 243 243 240 237 237 241 246 249 250 250
247 246 245 244 245 245 245 246 246 246 246 246 245 245 245 246 247 248 250 252 254 255 256 257 257 253 248 245 246 247 247 246 246 247 244 241 242 243 241 238 236 239 243 242 240 241 242 240 238 237 236 236 236 237 238 240 241 241 243 247 252 256 257
247 248 247 247 247 247 247 248 248 248 248 248 248 247 246 246 247 248 250 251 253 254 256 257 257 256 252 248 247 247 249 249 250 251 249 246 244 246 245 242 238 239 241 241 239 241 243 242 238 237 237 237 237 236 235 237 243 250 253 253 253 255 257
248 248 249 249 249 249 250 250 250 250 250 250 249 248 247 247 248 249 250 251 253 254 255 257 257 257 256 253 250 249 250 251 251 251 251 249 246 247 248 247 242 239 239 239 238 239 241 241 240 239 239 240 240 240 239 238 239 242 245 247 247 248 249
248 249 249 250 251 252 252 251 251 251 251 251 252 251 250 250 250 251 250 251 252 254 255 256 257 257 258 257 255 253 251 250 250 250 250 250 248 247 249 249 245 241 239 238 237 236 237 239 240 241 242 243 244 244 243 240 236 236 239 242 245 247 249
247 248 249 250 251 253 253 253 253 253 252 252 252 253 253 253 253 253 253 252 252 252 253 255 255 256 257 257 257 257 256 254 252 250 249 249 248 246 247 248 247 244 242 241 239 236 235 236 238 239 241 243 245 247 246 241 238 239 242 244 245 248 250
247 249 250 250 250 250 252 253 254 254 255 254 254 254 254 254 255 255 256 255 254 253 252 253 253 254 255 255 256 257 258 258 257 255 253 251 250 248 247 248 249 247 246 244 242 237 236 237 237 237 239 241 243 246 247 244 241 242 244 245 246 248 250
250 250 250 251 251 251 251 252 253 254 255 255 255 255 255 255 256 256 257 257 256 255 253 253 253 253 253 253 254 255 256 257 259 259 258 257 254 252 250 249 250 250 249 249 247 243 241 241 239 237 237 238 241 245 247 246 245 244 245 248 250 251 254
253 253 252 252 252 253 253 253 253 254 254 255 255 255 255 255 256 257 257 258 258 257 256 254 253 252 252 252 252 253 254 255 256 258 259 259 258 256 253 251 250 249 249 249 249 248 248 246 242 238 238 239 243 247 249 249 249 247 246 248 252 254 255
253 253 253 253 253 254 254 254 254 254 254 255 255 256 256 256 256 256 257 257 257 258 258 257 256 254 253 252 251 251 252 253 254 255 256 257 258 257 256 254 252 250 249 248 248 248 249 249 247 244 242 242 244 246 248 250 251 250 247 247 251 254 256
253 253 252 253 253 254 254 254 254 254 254 255 256 256 257 257 257 257 256 256 257 257 257 258 257 256 255 255 253 252 251 251 252 253 253 254 256 257 257 255 254 253 252 251 249 248 248 248 248 247 247 247 247 248 249 250 252 254 253 251 252 254 255
254 254 253 252 252 253 254 255 255 255 255 255 255 256 256 256 257 257 257 256 256 256 256 257 257 257 257 256 255 254 253 252 252 252 252 252 253 254 256 256 256 255 255 255 254 253 252 250 249 248 248 250 251 251 252 252 254 257 258 258 259 259 259
256 256 256 255 253 253 253 254 255 256 256 255 255 255 256 256 257 257 257 257 256 256 256 256 257 257 257 257 256 255 255 254 253 253 253 252 251 252 253 254 255 255 256 256 257 257 257 256 255 254 252 251 251 251 252 253 253 255 257 259 262 265 266
259 259 259 258 256 255 254 254 255 256 256 256 256 256 256 257 257 257 257 257 257 257 256 256 256 257 258 258 257 256 255 255 254 254 253 253 252 252 252 252 253 253 254 255 257 258 258 259 259 259 258 256 255 254 254 254 254 254 255 256 259 263 266
259 259 259 259 258 257 256 256 256 256 257 257 257 257 257 257 257 258 258 258 258 257 257 257 256 256 257 258 258 258 257 256 255 254 254 254 253 253 253 252 252 252 252 253 254 256 257 258 259 260 260 260 259 259 258 258 258 258 258 258 259 261 264
258 258 257 257 258 258 257 256 256 256 257 257 258 258 258 258 257 258 258 259 259 258 258 258 257 257 257 257 257 257 257 257 256 256 255 255 255 254 253 253 253 253 253 252 252 254 255 256 257 259 259 260 260 260 260 260 261 261 261 260 260 261 263
Height
5904 5906 5909 5911 5913 5916 5918 5920 5922 5924 5926 5928 5929 5931 5933 5934 5936 5937 5939 5940 5942 5943 5945 5946 5948 5949 5951 5952 5953 5953 5955 5956 5957 5959 5960 5961 5963 5964 5965 5966 5967 5968 5968 5969 5970 5971 5972 5973 5974 5975 5976 5977 5978 5979 5979 5980 5981 5981 5982 5982 5982 5983 5983
5901 5904 5907 5909 5911 5914 5916 5918 5920 5922 5924 5926 5928 5930 5931 5933 5934 5936 5938 5939 5941 5942 5944 5945 5947 5949 5950 5951 5952 5953 5954 5956 5957 5958 5960 5961 5962 5963 5964 5965 5966 5967 5968 5969 5970 5971 5972 5973 5974 5975 5976 5977 5978 5979 5979 5980 5981 5981 5982 5982 5982 5983 5983
5900 5903 5906 5908 5910 5912 5914 5916 5918 5920 5921 5923 5926 5929 5930 5932 5934 5935 5937 5939 5940 5941 5943 5944 5946 5947 5949 5950 5951 5952 5954 5955 5957 5958 5959 5960 5961 5963 5964 5965 5966 5967 5968 5969 5969 5971 5972 5973 5974 5975 5976 5977 5978 5979 5979 5980 5981 5981 5982 5982 5983 5983 5983
5900 5903 5905 5907 5909 5911 5912 5914 5915 5918 5921 5923 5926 5928 5929 5931 5933 5935 5937 5938 5940 5941 5942 5943 5944 5946 5948 5949 5951 5952 5953 5955 5956 5957 5959 5960 5961 5962 5963 5964 5965 5966 5967 5968 5969 5970 5971 5972 5973 5974 5975 5976 5977 5978 5979 5980 5980 5981 5981 5982 5982 5983 5983
5898 5901 5903 5905 5907 5909 5910 5912 5915 5920 5923 5923 5924 5925 5927 5928 5931 5933 5935 5937 5939 5940 5941 5942 5943 5945 5946 5948 5949 5951 5952 5954 5956 5957 5958 5960 5961 5962 5963 5963 5964 5965 5966 5968 5968 5969 5970 5971 5972 5974 5975 5976 5976 5977 5978 5979 5980 5981 5981 5982 5982 5983 5983
5897 5899 5901 5904 5905 5906 5908 5912 5917 5921 5920 5918 5920 5922 5924 5926 5928 5929 5931 5933 5936 5938 5941 5942 5943 5944 5945 5947 5948 5950 5951 5953 5955 5957 5958 5959 5960 5961 5962 5963 5964 5965 5965 5966 5967 5968 5969 5970 5972 5973 5974 5975 5976 5977 5978 5978 5979 5980 5981 5981 5982 5982 5983
5896 5898 5900 5902 5903 5904 5906 5911 5917 5918 5914 5915 5919 5922 5924 5925 5927 5928 5930 5932 5934 5936 5939 5942 5943 5944 5945 5946 5947 5948 5950 5951 5954 5956 5957 5958 5959 5960 5962 5963 5964 5964 5965 5966 5966 5967 5968 5970 5971 5972 5973 5974 5975 5976 5977 5978 5978 5979 5980 5981 5981 5982 5982
5896 5897 5899 5901 5902 5904 5906 5910 5915 5914 5913 5916 5920 5922 5923 5924 5925 5927 5929 5930 5933 5936 5938 5940 5940 5942 5944 5945 5946 5947 5948 5949 5951 5954 5955 5957 5958 5959 5961 5962 5963 5964 5964 5965 5965 5966 5967 5969 5970 5971 5972 5973 5974 5975 5976 5977 5978 5978 5979 5980 5981 5981 5982
5894 5896 5898 5900 5901 5904 5906 5910 5913 5912 5912 5916 5920 5920 5920 5921 5922 5924 5926 5927 5931 5936 5938 5939 5939 5940 5943 5945 5944 5944 5946 5947 5949 5951 5953 5954 5956 5957 5959 5960 5962 5963 5964 5964 5965 5965 5966 5967 5969 5970 5971 5972 5973 5974 5975 5976 5977 5977 5978 5979 5980 5980 5981
5893 5896 5898 5899 5900 5902 5905 5909 5911 5911 5911 5914 5916 5917 5916 5917 5920 5922 5924 5927 5930 5932 5933 5936 5939 5939 5941 5943 5943 5942 5943 5945 5947 5949 5951 5952 5953 5955 5957 5958 5960 5962 5963 5963 5964 5965 5965 5966 5967 5968 5970 5971 5972 5973 5974 5974 5975 5976 5977 5978 5979 5979 5980
5891 5894 5896 5898 5898 5899 5901 5904 5907 5909 5911 5911 5912 5912 5912 5915 5918 5921 5924 5927 5928 5929 5929 5932 5935 5936 5938 5941 5941 5940 5941 5943 5945 5946 5948 5950 5951 5953 5955 5957 5959 5960 5962 5963 5963 5964 5964 5965 5965 5966 5967 5969 5970 5971 5972 5973 5974 5975 5976 5976 5977 5978 5979
5888 5890 5892 5895 5897 5898 5899 5900 5902 5906 5908 5909 5910 5910 5911 5913 5917 5920 5922 5923 5924 5926 5928 5930 5932 5932 5934 5936 5938 5939 5940 5942 5943 5945 5947 5949 5950 5952 5954 5956 5958 5959 5961 5962 5963 5963 5963 5964 5964 5965 5966 5967 5968 5969 5970 5972 5973 5974 5975 5975 5976 5977 5978
5886 5888 5890 5892 5895 5897 5898 5898 5900 5902 5904 5907 5909 5911 5911 5913 5916 5919 5920 5920 5921 5923 5926 5929 5930 5930 5932 5934 5936 5937 5937 5939 5941 5943 5945 5947 5949 5950 5952 5954 5957 5959 5960 5961 5962 5962 5963 5963 5963 5963 5964 5965 5966 5967 5969 5970 5971 5972 5973 5974 5975 5976 5976
5884 5885 5888 5890 5892 5895 5897 5897 5898 5900 5902 5904 5907 5909 5911 5913 5915 5917 5918 5919 5920 5921 5923 5926 5926 5928 5930 5934 5935 5935 5934 5936 5938 5940 5942 5944 5946 5947 5948 5949 5952 5954 5957 5959 5960 5961 5962 5962 5962 5962 5963 5964 5965 5966 5967 5968 5969 5970 5971 5972 5973 5974 5975
5882 5883 5886 5888 5890 5892 5894 5896 5897 5899 5900 5902 5904 5906 5908 5910 5911 5912 5914 5916 5917 5919 5921 5922 5923 5924 5926 5929 5931 5932 5932 5933 5934 5936 5938 5940 5942 5944 5944 5944 5945 5947 5951 5954 5957 5959 5960 5961 5961 5961 5961 5962 5963 5964 5965 5966 5967 5968 5969 5970 5971 5972 5973
5880 5882 5884 5885 5887 5890 5892 5894 5895 5897 5898 5900 5901 5903 5904 5906 5907 5908 5910 5912 5914 5916 5919 5920 5920 5921 5923 5924 5926 5927 5930 5931 5932 5933 5935 5936 5937 5938 5940 5941 5941 5942 5943 5947 5951 5955 5957 5958 5959 5960 5960 5960 5961 5962 5963 5964 5964 5965 5966 5967 5969 5970 5970
5878 5879 5881 5883 5885 5887 5889 5891 5893 5895 5896 5898 5899 5901 5902 5903 5905 5906 5907 5909 5911 5915 5917 5918 5918 5918 5920 5922 5923 5924 5926 5927 5929 5930 5931 5932 5933 5934 5936 5938 5938 5939 5940 5943 5948 5952 5956 5958 5958 5958 5959 5959 5959 5960 5960 5961 5962 5962 5964 5965 5966 5967 5968
5874 5876 5878 5880 5882 5884 5886 5888 5890 5892 5894 5895 5896 5898 5900 5901 5902 5903 5905 5907 5909 5912 5915 5916 5916 5916 5917 5919 5920 5921 5923 5924 5925 5927 5928 5929 5930 5931 5933 5935 5937 5940 5943 5946 5950 5953 5955 5958 5959 5958 5958 5958 5958 5958 5958 5959 5959 5959 5960 5962 5963 5964 5965
5871 5873 5875 5877 5879 5880 5883 5885 5887 5889 5891 5892 5893 5895 5897 5899 5900 5901 5902 5904 5906 5909 5911 5913 5913 5914 5915 5916 5917 5918 5919 5920 5922 5923 5924 5925 5927 5929 5930 5932 5935 5941 5945 5948 5950 5951 5953 5955 5955 5956 5956 5956 5956 5956 5956 5956 5957 5957 5958 5958 5959 5961 5962
5868 5870 5872 5874 5876 5878 5879 5881 5884 5886 5887 5889 5890 5891 5893 5895 5897 5898 5899 5901 5903 5905 5907 5909 5909 5911 5913 5914 5914 5916 5916 5917 5918 5920 5921 5922 5923 5925 5927 5929 5932 5936 5941 5944 5944 5944 5945 5947 5949 5950 5950 5951 5952 5953 5953 5953 5954 5954 5955 5955 5956 5957 5959
5865 5866 5868 5870 5872 5874 5876 5878 5880 5882 5884 5885 5887 5888 5890 5892 5894 5895 5896 5897 5898 5900 5903 5905 5906 5908 5910 5911 5912 5913 5914 5915 5916 5918 5919 5920 5921 5922 5924 5926 5928 5932 5936 5938 5937 5936 5937 5940 5942 5944 5945 5947 5948 5950 5951 5951 5951 5952 5952 5953 5953 5954 5956
5861 5863 5865 5866 5868 5869 5872 5874 5876 5878 5880 5882 5883 5885 5886 5888 5890 5891 5892 5893 5895 5897 5899 5901 5902 5905 5906 5907 5909 5910 5912 5913 5914 5915 5917 5918 5919 5920 5922 5923 5925 5928 5931 5934 5934 5933 5934 5935 5937 5939 5941 5944 5945 5947 5948 5949 5948 5948 5949 5950 5950 5951 5953
5856 5858 5860 5861 5863 5864 5867 5869 5871 5874 5876 5877 5879 5881 5883 5885 5886 5887 5888 5889 5891 5893 5894 5896 5898 5901 5903 5904 5905 5907 5908 5909 5911 5913 5914 5916 5916 5917 5919 5920 5922 5925 5927 5929 5930 5930 5930 5932 5933 5936 5938 5940 5941 5943 5943 5943 5943 5944 5946 5947 5947 5949 5950
5852 5853 5855 5857 5858 5859 5862 5864 5865 5868 5870 5872 5875 5877 5879 5880 5881 5882 5884 5885 5887 5888 5890 5892 5894 5896 5899 5901 5902 5903 5904 5905 5907 5909 5911 5912 5913 5914 5916 5918 5920 5921 5922 5924 5925 5925 5925 5927 5930 5932 5935 5936 5936 5936 5936 5936 5939 5943 5945 5947 5947 5947 5948
5847 5848 5851 5852 5852 5855 5858 5859 5860 5863 5864 5866 5869 5872 5873 5874 5875 5878 5879 5881 5882 5884 5885 5886 5888 5890 5893 5896 5897 5898 5899 5901 5903 5905 5907 5909 5910 5911 5913 5914 5916 5917 5918 5919 5920 5920 5920 5922 5925 5928 5930 5931 5931 5929 5930 5934 5940 5944 5945 5945 5944 5944 5944
5842 5843 5845 5845 5847 5850 5853 5853 5855 5857 5859 5860 5863 5866 5867 5868 5870 5873 5874 5876 5877 5879 5880 5881 5883 5885 5887 5890 5892 5894 5895 5897 5898 5900 5902 5904 5906 5908 5909 5910 5912 5913 5914 5915 5916 5916 5917 5918 5920 5922 5924 5925 5925 5925 5929 5935 5939 5939 5937 5936 5936 5936 5937
5837 5837 5837 5839 5842 5845 5846 5847 5849 5851 5853 5854 5856 5858 5861 5863 5865 5867 5869 5871 5872 5873 5875 5877 5878 5880 5882 5884 5886 5888 5890 5892 5894 5896 5898 5900 5902 5904 5905 5906 5907 5908 5910 5911 5912 5912 5913 5914 5916 5918 5919 5920 5921 5923 5927 5931 5932 5930 5929 5929 5930 5932 5934
5832 5831 5832 5835 5838 5840 5839 5840 5843 5845 5846 5849 5851 5852 5854 5856 5859 5860 5862 5865 5867 5869 5870 5871 5873 5875 5877 5878 5880 5882 5884 5886 5889 5891 5893 5895 5897 5899 5901 5902 5903 5904 5905 5907 5907 5908 5909 5910 5912 5913 5914 5916 5917 5921 5923 5924 5924 5925 5926 5927 5928 5929 5930
5826 5825 5827 5831 5834 5834 5834 5835 5837 5838 5840 5843 5845 5846 5848 5850 5852 5854 5855 5858 5861 5863 5864 5866 5867 5869 5872 5874 5875 5876 5878 5880 5882 5884 5887 5889 5892 5894 5896 5897 5898 5899 5901 5902 5903 5904 5905 5906 5907 5909 5910 5913 5915 5917 5918 5918 5919 5921 5922 5923 5924 5925 5925
5818 5820 5822 5825 5827 5828 5828 5830 5832 5833 5834 5837 5838 5840 5842 5843 5845 5847 5849 5851 5853 5855 5857 5860 5861 5863 5865 5868 5870 5871 5872 5874 5876 5878 5880 5882 5885 5888 5890 5892 5893 5894 5896 5897 5899 5900 5901 5902 5903 5904 5906 5908 5910 5911 5913 5914 5915 5917 5918 5918 5920 5921 5921
5810 5813 5816 5818 5820 5821 5822 5824 5826 5827 5829 5830 5832 5834 5835 5838 5839 5841 5842 5844 5845 5847 5850 5852 5855 5857 5858 5861 5863 5865 5867 5869 5870 5872 5873 5875 5878 5881 5884 5886 5888 5890 5891 5893 5893 5895 5896 5897 5898 5900 5902 5903 5904 5906 5908 5909 5910 5912 5914 5914 5915 5916 5917
5805 5807 5809 5811 5813 5814 5815 5817 5819 5820 5822 5824 5826 5828 5829 5831 5833 5834 5836 5837 5839 5840 5843 5845 5847 5849 5851 5853 5856 5858 5860 5862 5864 5866 5867 5869 5871 5873 5876 5880 5882 5884 5886 5888 5889 5890 5891 5893 5894 5896 5898 5899 5899 5900 5902 5903 5905 5907 5908 5909 5910 5911 5912
5798 5800 5803 5805 5807 5807 5808 5809 5811 5813 5816 5817 5819 5821 5822 5824 5826 5827 5829 5831 5832 5834 5836 5837 5839 5841 5843 5845 5848 5850 5852 5854 5857 5858 5860 5863 5865 5866 5868 5872 5875 5877 5879 5882 5884 5885 5887 5889 5890 5891 5893 5894 5894 5895 5897 5898 5900 5901 5902 5903 5905 5906 5907
5792 5794 5797 5799 5800 5801 5802 5802 5804 5806 5809 5811 5812 5813 5815 5816 5818 5820 5822 5824 5825 5827 5829 5830 5832 5834 5835 5837 5839 5842 5844 5846 5848 5850 5853 5856 5858 5859 5860 5864 5867 5869 5871 5873 5875 5878 5880 5882 5884 5885 5887 5888 5889 5890 5893 5895 5896 5897 5897 5898 5899 5901 5902
5786 5787 5789 5791 5793 5794 5795 5797 5798 5800 5801 5803 5805 5806 5808 5809 5811 5813 5814 5816 5818 5820 5821 5823 5825 5826 5828 5829 5831 5833 5835 5838 5840 5842 5845 5848 5850 5852 5854 5856 5858 5861 5863 5865 5866 5869 5871 5874 5876 5878 5880 5882 5883 5885 5888 5890 5891 5892 5893 5893 5894 5896 5897
5779 5781 5782 5783 5785 5787 5789 5791 5792 5792 5793 5795 5797 5799 5801 5802 5803 5804 5806 5808 5810 5812 5814 5816 5818 5819 5820 5821 5823 5825 5827 5830 5832 5834 5836 5838 5841 5843 5846 5848 5850 5853 5856 5857 5858 5860 5862 5864 5866 5869 5872 5874 5876 5879 5881 5883 5884 5886 5887 5888 5889 5890 5891
5774 5775 5776 5776 5777 5780 5782 5784 5785 5785 5786 5788 5790 5791 5793 5794 5795 5796 5798 5800 5802 5804 5806 5808 5810 5811 5812 5813 5815 5816 5818 5821 5823 5826 5827 5829 5832 5835 5837 5839 5841 5844 5847 5849 5850 5851 5853 5856 5857 5859 5862 5864 5867 5870 5873 5875 5877 5878 5879 5881 5882 5883 5884
5769 5768 5768 5769 5771 5773 5775 5776 5777 5778 5780 5781 5783 5784 5785 5786 5787 5789 5790 5792 5793 5794 5797 5799 5801 5803 5804 5805 5806 5808 5810 5812 5815 5817 5819 5821 5823 5825 5827 5830 5833 5835 5838 5841 5842 5843 5845 5847 5849 5851 5852 5855 5858 5861 5863 5865 5868 5870 5871 5873 5875 5876 5877